Temperature
10 10 10 10 10 11 11 11 10 10 10 10 10 10 10 10 10 10 10 11 11 11 11 11 11 11 10 11 11 11 11 11 11 10 10 10 10 10 10 10 10 10 10
10 10 10 10 10 10 10 10 10 10 10 10 10 10 10 10 10 10 10 10 10 10 10 10 10 10 10 10 10 10 10 10 10 10 10 10 10 10 10 10 10 10 10
9 9 9 9 9 9 10 10 10 9 10 10 10 10 10 10 10 9 10 10 10 10 10 10 10 10 10 9 9 9 9 9 9 9 9 10 10 10 10 10 10 10 9
9 9 9 9 9 9 9 9 9 9 9 9 9 9 9 9 9 9 9 9 9 9 9 9 9 9 9 9 9 9 9 9 9 9 9 9 9 9 9 9 9 9 9
8 8 8 8 8 8 8 8 9 8 8 8 9 9 9 9 8 9 9 9 9 9 9 9 9 9 9 9 9 8 8 8 8 8 8 9 9 9 9 9 9 9 9
8 8 8 8 8 8 8 8 8 8 8 8 8 8 8 8 8 8 8 8 8 8 8 8 8 8 8 8 8 8 8 8 8 8 8 8 8 8 8 8 8 8 8
7 7 7 7 7 7 7 7 7 7 7 7 7 7 7 7 7 7 7 8 8 8 8 8 8 8 8 8 8 8 8 8 8 8 8 8 8 8 8 8 8 8 8
6 7 7 7 7 7 7 7 6 6 6 6 6 6 6 6 6 7 7 7 7 7 7 7 7 7 7 7 7 7 7 7 7 7 7 7 7 7 7 7 7 8 8
6 6 6 6 6 6 6 6 6 6 6 6 6 6 5 5 5 6 6 6 6 6 6 7 7 7 7 7 7 7 7 7 7 7 7 7 7 7 7 7 7 7 7
5 5 5 5 5 5 6 5 5 5 5 5 5 5 5 5 5 5 5 5 6 6 6 6 6 6 6 6 6 6 6 6 6 6 6 6 6 6 6 6 7 7 7
4 4 5 5 5 5 5 5 5 5 5 5 5 5 5 5 5 4 4 5 5 5 5 5 5 5 5 5 5 6 6 6 6 6 6 6 6 6 6 6 6 6 6
4 4 4 4 4 4 4 4 4 4 4 4 4 4 4 4 4 4 4 4 4 4 4 5 5 5 5 5 5 5 5 5 5 5 5 5 5 6 5 6 5 6 6
3 3 3 3 3 3 3 3 3 4 4 4 4 4 4 4 4 4 4 3 3 3 4 4 4 4 4 4 5 5 5 5 5 5 5 5 5 5 5 5 5 5 5
2 2 2 3 3 3 3 3 3 3 3 3 3 3 3 3 3 3 4 3 2 2 3 3 4 4 4 4 4 4 4 4 4 4 4 5 5 5 5 5 5 5 5
2 2 2 2 2 2 2 2 2 2 2 3 3 3 3 3 3 3 3 3 3 2 2 3 3 3 3 3 4 4 4 4 4 4 4 4 4 4 4 4 4 4 4
1 1 1 1 1 2 2 2 2 2 2 2 2 2 2 2 2 2 3 2 3 2 2 2 2 3 3 3 3 3 3 3 3 3 3 3 3 3 3 3 3 3 3
0 0 0 1 1 1 1 1 1 1 1 1 1 2 2 2 2 2 2 2 2 2 2 2 2 2 2 2 2 2 3 3 3 3 3 3 3 3 3 3 3 3 3
-0 -0 -0 0 0 0 1 1 1 1 1 1 1 1 1 1 1 1 1 1 1 1 1 2 2 2 2 2 2 2 2 2 2 2 2 2 2 2 2 2 2 2 2
-1 -1 -1 -1 -1 -0 -0 -0 -0 -0 0 0 0 0 1 1 1 1 1 1 1 1 1 1 1 1 1 1 1 1 1 1 1 1 2 2 1 1 1 2 2 1 1
-2 -2 -2 -2 -1 -1 -1 -1 -1 -1 -1 -0 -0 -0 -0 0 0 0 0 0 0 0 -0 0 0 0 0 0 0 0 0 0 1 1 1 1 1 1 1 1 1 1 1
-3 -3 -2 -2 -2 -2 -2 -2 -2 -1 -1 -1 -1 -1 -1 -1 -0 -0 -0 -0 -0 -0 -1 -1 -1 -1 -1 -1 -1 -0 -1 -0 -0 -0 -0 -0 0 0 -0 0 0 -0 0
-4 -3 -3 -3 -3 -3 -3 -2 -2 -2 -2 -2 -2 -2 -2 -1 -1 -1 -1 -1 -1 -1 -1 -1 -1 -1 -1 -1 -1 -1 -1 -1 -1 -1 -1 -1 -1 -1 -1 -1 -1 -1 -1
-4 -4 -4 -4 -4 -4 -3 -3 -3 -3 -3 -3 -3 -2 -2 -2 -2 -2 -2 -2 -2 -2 -2 -2 -2 -2 -2 -1 -2 -2 -2 -2 -2 -1 -2 -2 -2 -2 -1 -1 -1 -2 -2
-5 -5 -5 -4 -4 -4 -4 -4 -4 -4 -4 -3 -3 -3 -3 -3 -3 -3 -3 -3 -3 -3 -2 -2 -2 -2 -2 -2 -2 -2 -2 -2 -3 -2 -3 -3 -3 -3 -2 -2 -2 -2 -2
-6 -5 -5 -5 -5 -5 -5 -4 -4 -4 -4 -4 -4 -4 -3 -3 -3 -3 -3 -3 -3 -3 -3 -3 -3 -3 -3 -3 -3 -3 -3 -3 -4 -3 -3 -4 -4 -3 -3 -3 -3 -3 -3
-6 -6 -6 -6 -6 -5 -5 -5 -5 -5 -5 -5 -4 -4 -4 -4 -4 -4 -4 -4 -4 -4 -4 -4 -4 -4 -4 -4 -4 -4 -4 -4 -4 -4 -4 -4 -4 -4 -4 -4 -4 -4 -4
Wind_Speed
2 3 4 4 4 5 5 5 5 5 5 5 5 5 5 5 5 5 6 9 9 9 9 10 10 10 11 12 12 12 11 11 10 10 10 10 10 10 10 10 10 10 10
3 3 3 3 4 4 5 5 5 5 5 5 5 5 5 5 4 5 5 6 8 9 9 9 9 9 10 11 12 12 11 11 10 10 10 10 10 10 9 10 9 9 9
3 3 3 3 3 5 5 5 6 5 5 5 5 5 5 5 5 5 5 4 5 8 9 9 9 9 10 10 10 10 10 10 9 9 9 9 9 9 8 9 8 8 8
4 4 3 3 4 4 5 5 5 4 4 4 4 4 4 4 5 5 5 5 4 5 7 9 9 9 9 9 9 9 9 9 8 8 8 8 8 8 8 9 8 7 7
4 4 3 3 4 4 3 4 5 5 5 4 4 3 3 3 3 4 5 5 4 4 5 7 9 9 9 9 8 9 9 8 8 8 8 7 7 7 8 8 7 7 6
4 4 3 4 4 3 3 4 5 5 5 5 4 4 3 3 2 3 3 4 4 5 5 6 6 7 7 7 8 8 8 8 8 7 6 6 6 6 6 6 6 6 6
4 4 3 4 4 4 4 5 4 6 5 5 4 3 2 2 2 2 2 3 3 4 4 5 5 5 5 6 7 7 7 7 7 7 6 5 4 4 4 4 4 5 5
4 4 4 4 4 4 5 5 5 4 3 4 4 4 3 2 1 1 1 1 2 3 3 4 4 5 5 4 4 5 5 5 5 5 4 4 4 3 3 3 3 3 3
3 4 4 4 4 5 5 5 6 6 5 4 4 3 3 4 2 2 1 1 1 2 3 3 4 4 4 4 4 4 4 4 3 3 3 3 2 3 3 2 2 2 2
2 3 4 4 4 4 4 5 5 6 6 6 4 2 1 2 3 3 2 2 2 2 2 3 3 3 4 3 3 3 3 3 2 2 2 1 1 1 1 1 2 2 2
1 3 4 4 4 4 4 5 5 6 6 6 6 4 3 2 2 3 3 3 3 3 3 3 3 3 4 4 3 2 2 2 2 2 2 1 0 1 1 1 1 2 2
1 1 3 3 4 4 5 5 6 7 6 7 6 5 5 4 4 3 3 4 4 3 3 3 4 4 4 4 4 3 3 4 3 3 2 2 1 1 2 2 2 2 2
2 2 3 3 3 4 5 5 5 6 7 8 8 6 6 6 4 4 4 3 3 3 3 4 4 4 4 5 4 4 5 5 4 4 3 3 2 2 3 2 3 3 2
3 3 3 4 4 4 5 5 5 5 6 7 8 7 6 5 5 5 4 4 3 4 4 4 4 5 5 5 4 5 6 6 6 5 5 4 4 3 3 3 3 3 2
3 4 3 4 4 4 5 5 5 6 6 6 6 6 6 5 5 5 5 6 5 5 6 4 4 5 5 5 4 4 5 6 7 7 6 5 5 4 4 4 4 3 3
3 3 4 4 4 4 5 5 5 6 6 6 5 6 6 5 5 5 5 6 6 5 5 4 4 4 5 5 5 5 5 5 7 7 6 6 6 5 5 4 3 2 2
4 4 4 4 5 5 5 5 6 6 7 7 6 7 7 6 5 5 5 5 6 5 6 4 4 4 5 5 5 5 5 5 5 7 7 6 6 5 5 4 4 3 3
4 4 4 4 5 5 5 6 6 7 7 7 7 8 8 6 7 6 5 6 6 6 6 6 4 5 5 6 5 5 4 5 5 6 7 6 6 5 5 5 4 4 4
3 3 4 4 4 5 5 6 6 6 7 7 7 8 8 8 8 6 6 6 5 5 5 6 5 4 4 4 5 4 4 4 4 5 6 7 7 6 6 6 5 5 4
3 3 3 3 4 4 5 5 5 6 6 6 6 7 8 8 9 8 7 7 6 6 5 5 5 4 4 4 5 4 4 4 3 4 5 6 7 7 7 6 6 6 5
3 3 3 3 4 4 4 5 6 6 6 6 6 7 7 7 8 7 6 7 6 5 5 6 6 4 5 4 5 4 4 3 3 4 4 4 5 5 6 6 7 6 5
3 3 3 4 4 4 4 6 6 6 6 6 6 6 6 7 7 8 8 8 7 7 7 7 6 7 7 6 5 5 5 4 4 4 4 4 4 5 5 5 6 6 5
4 4 4 4 5 5 5 6 7 6 6 6 7 6 6 6 7 7 7 7 8 8 8 8 9 9 8 8 7 7 7 6 4 3 4 5 4 5 5 5 5 6 6
4 4 4 5 5 5 6 7 7 7 6 6 7 7 7 7 7 7 7 7 7 8 8 8 7 7 7 7 7 7 6 4 3 3 5 5 4 5 4 5 6 6 6
4 4 4 5 5 5 6 6 6 5 5 6 6 6 7 7 8 8 7 7 6 6 7 7 7 7 8 8 8 5 5 5 4 4 4 4 4 3 4 4 5 6 7
5 4 4 4 5 5 6 6 6 4 5 5 5 6 7 8 9 10 8 8 8 7 6 6 6 6 7 9 10 9 7 7 5 4 4 4 3 2 3 3 3 4 5
Wind_Direction
145 153 149 138 138 138 138 136 133 130 124 117 111 106 97 90 94 92 89 84 89 96 103 109 113 119 118 115 113 110 107 104 103 104 103 98 95 92 89 88 87 83 79
149 154 149 143 141 147 146 143 139 135 129 121 110 103 99 95 92 94 92 96 82 81 92 106 107 109 118 117 112 109 106 103 103 104 103 100 97 92 89 88 85 82 80
155 150 150 144 149 150 149 145 139 133 129 124 116 103 94 90 90 90 86 91 97 83 80 94 103 104 106 110 112 111 108 106 103 100 98 96 95 92 91 92 88 85 81
155 154 155 151 155 152 149 148 148 143 139 134 122 105 94 87 85 81 82 80 92 101 92 83 90 96 100 101 104 109 110 109 108 102 96 94 92 87 87 89 86 84 80
159 157 153 150 152 150 149 149 156 154 148 138 124 108 95 88 91 85 84 76 80 93 105 100 93 89 91 94 97 100 107 109 107 102 99 96 93 87 88 85 82 80 77
164 159 151 153 152 147 155 152 150 153 150 139 119 101 84 83 83 81 90 85 84 89 97 107 108 99 88 86 87 93 98 99 102 99 98 96 93 91 91 86 79 74 68
159 160 159 161 158 158 161 155 150 152 151 145 136 122 91 87 85 81 86 91 97 102 104 105 108 110 105 93 84 89 92 94 97 94 91 93 94 96 97 91 80 69 57
161 164 167 169 172 165 160 157 156 160 157 165 165 161 169 181 157 110 111 112 116 118 117 116 116 114 115 111 95 94 95 95 98 99 93 87 84 84 94 86 80 66 48
166 165 166 168 175 170 173 174 172 170 172 175 177 179 181 198 179 174 175 174 165 141 140 135 127 128 131 126 115 107 103 102 101 101 102 92 83 64 57 64 69 55 28
173 180 172 167 168 170 177 182 183 182 178 184 189 207 209 154 173 175 187 194 205 193 176 162 158 157 150 142 129 120 121 126 129 128 118 112 88 55 16 32 45 38 22
177 195 179 173 174 177 181 183 187 191 187 189 192 189 174 176 192 186 192 196 210 218 206 194 190 185 173 169 162 149 159 165 177 180 189 179 186 263 330 310 345 0 357
191 202 186 183 186 185 188 189 191 198 197 193 196 196 191 187 190 188 197 198 206 211 209 205 204 198 191 188 182 174 193 195 200 202 203 209 244 275 307 289 307 321 332
214 216 206 198 198 197 193 193 191 202 204 197 200 204 206 208 197 199 190 194 211 209 202 208 209 210 202 196 194 195 203 205 209 213 215 225 243 266 295 284 290 302 312
220 217 216 207 205 203 195 193 193 200 207 205 206 208 210 212 203 203 199 192 204 217 214 209 203 208 211 201 202 202 209 210 217 224 226 231 242 254 269 278 277 282 295
222 218 221 215 208 203 198 196 199 200 204 209 208 210 215 215 212 212 205 199 200 210 216 211 203 204 212 208 202 211 219 217 220 226 229 233 238 243 249 258 261 266 279
216 217 223 223 213 208 201 199 204 204 204 209 208 208 213 215 213 216 212 215 219 219 226 211 213 214 213 221 215 217 219 219 219 219 221 228 234 237 237 238 242 253 272
220 214 219 223 215 216 213 205 208 205 208 210 208 209 214 214 211 213 218 217 218 216 229 231 216 208 215 218 219 222 219 220 218 215 217 224 229 229 229 226 235 252 267
230 218 218 226 219 216 217 213 210 208 210 211 211 210 212 210 211 212 216 219 220 217 223 223 217 211 218 217 216 220 223 224 223 217 217 222 224 228 235 230 228 240 253
247 231 221 228 228 219 214 215 213 212 211 213 214 214 213 210 212 212 214 218 220 214 221 212 213 213 217 213 214 222 227 229 232 223 222 220 223 232 238 236 234 239 248
254 246 233 233 236 227 217 212 212 216 216 215 216 219 217 215 215 211 213 216 213 208 208 200 203 207 214 212 213 215 226 226 234 231 228 229 227 230 232 235 236 240 245
265 260 249 235 237 229 223 215 211 213 217 218 218 220 220 218 218 215 213 213 211 208 210 200 206 210 210 206 215 214 222 226 242 232 234 237 230 230 230 232 233 235 239
267 263 255 243 239 233 234 223 214 215 217 219 221 221 220 216 215 215 218 219 216 214 213 207 215 213 217 218 214 211 213 224 249 226 231 244 235 237 235 235 233 230 234
267 261 258 253 250 244 235 230 222 218 220 221 222 222 221 218 215 219 218 217 221 228 233 223 217 220 219 216 212 215 219 229 244 228 224 241 237 243 242 238 233 233 243
264 260 260 260 258 254 245 238 229 222 225 227 227 226 224 220 216 216 218 221 227 229 232 233 226 225 221 217 216 220 224 228 252 242 231 242 239 247 248 243 229 231 248
265 262 262 260 257 259 251 242 234 228 227 232 233 231 226 225 216 210 214 218 228 235 228 227 225 221 215 212 207 204 205 212 239 243 236 242 243 253 255 249 236 233 242
263 261 260 256 256 258 249 238 233 233 232 234 237 235 227 224 217 213 215 217 225 232 226 222 218 218 215 210 207 211 211 215 228 237 221 223 228 233 248 249 240 244 248
Height
1531 1532 1533 1535 1537 1539 1540 1542 1544 1545 1547 1548 1550 1552 1553 1554 1555 1556 1557 1558 1560 1561 1561 1562 1563 1563 1564 1564 1564 1565 1565 1566 1566 1566 1567 1567 1567 1567 1567 1568 1568 1568 1568
1529 1530 1532 1533 1535 1537 1538 1540 1542 1544 1545 1547 1549 1550 1552 1553 1555 1556 1557 1558 1559 1560 1561 1562 1563 1563 1564 1564 1564 1565 1565 1566 1566 1567 1567 1567 1567 1567 1568 1568 1568 1568 1568
1527 1528 1530 1531 1532 1534 1536 1538 1540 1542 1544 1545 1547 1549 1551 1552 1554 1555 1556 1557 1559 1560 1561 1561 1562 1563 1564 1564 1564 1564 1565 1566 1566 1567 1567 1567 1567 1567 1568 1568 1568 1568 1568
1524 1526 1528 1529 1530 1532 1534 1536 1538 1540 1542 1543 1545 1547 1549 1550 1552 1554 1555 1556 1557 1559 1560 1560 1561 1562 1563 1563 1564 1564 1565 1565 1566 1566 1567 1567 1567 1567 1567 1567 1567 1567 1567
1521 1524 1525 1526 1528 1529 1531 1533 1535 1537 1539 1541 1543 1545 1546 1548 1550 1552 1553 1554 1556 1557 1559 1559 1560 1561 1562 1562 1563 1563 1564 1565 1565 1566 1566 1566 1567 1567 1567 1567 1567 1567 1567
1519 1520 1521 1524 1525 1527 1528 1530 1532 1534 1537 1538 1541 1543 1544 1546 1548 1549 1551 1552 1554 1555 1557 1558 1559 1560 1561 1561 1562 1562 1563 1564 1564 1565 1565 1566 1566 1566 1567 1567 1567 1567 1566
1515 1517 1519 1521 1522 1523 1525 1527 1529 1531 1533 1536 1538 1541 1543 1544 1546 1547 1548 1550 1551 1553 1554 1556 1557 1558 1559 1560 1560 1561 1562 1562 1563 1564 1564 1565 1565 1565 1566 1566 1566 1566 1565
1511 1513 1515 1517 1518 1519 1521 1523 1526 1527 1529 1532 1535 1537 1540 1543 1543 1544 1545 1547 1548 1550 1551 1553 1554 1555 1557 1558 1558 1559 1560 1561 1561 1562 1563 1563 1564 1564 1564 1564 1564 1564 1564
1507 1509 1511 1513 1514 1515 1517 1519 1522 1524 1525 1528 1531 1533 1536 1537 1539 1541 1542 1544 1545 1547 1548 1550 1551 1553 1554 1555 1556 1557 1558 1559 1559 1560 1560 1561 1562 1562 1563 1563 1562 1562 1562
1503 1505 1507 1508 1510 1511 1513 1515 1518 1520 1522 1524 1527 1529 1531 1531 1534 1536 1539 1540 1541 1543 1545 1547 1548 1550 1551 1552 1553 1554 1555 1556 1557 1558 1558 1559 1559 1560 1560 1560 1560 1560 1560
1500 1501 1502 1504 1505 1507 1509 1511 1513 1516 1517 1520 1522 1524 1526 1528 1529 1531 1533 1535 1537 1539 1541 1543 1545 1546 1547 1549 1550 1551 1552 1553 1554 1555 1556 1556 1557 1557 1557 1557 1557 1557 1557
1495 1497 1498 1500 1501 1503 1505 1506 1509 1511 1513 1515 1517 1520 1521 1523 1525 1527 1529 1530 1532 1535 1537 1539 1540 1542 1544 1545 1546 1548 1549 1550 1551 1552 1552 1553 1554 1554 1554 1554 1554 1554 1554
1491 1492 1494 1495 1497 1499 1500 1502 1504 1506 1508 1510 1513 1515 1517 1519 1521 1523 1525 1526 1528 1530 1532 1534 1536 1538 1540 1541 1542 1544 1545 1546 1547 1548 1549 1550 1550 1551 1551 1551 1551 1551 1551
1487 1489 1490 1491 1492 1494 1496 1498 1500 1502 1503 1505 1507 1510 1512 1515 1517 1519 1520 1522 1524 1526 1527 1529 1531 1533 1535 1537 1538 1540 1541 1542 1543 1544 1545 1546 1546 1547 1547 1547 1547 1548 1548
1483 1484 1486 1487 1488 1490 1491 1493 1495 1497 1499 1500 1502 1504 1507 1509 1511 1514 1516 1517 1520 1520 1522 1524 1526 1528 1530 1532 1534 1535 1537 1538 1539 1540 1540 1541 1542 1543 1543 1544 1544 1544 1544
1479 1480 1481 1483 1484 1485 1487 1488 1489 1491 1493 1495 1497 1499 1502 1504 1506 1508 1510 1512 1514 1516 1517 1518 1520 1523 1525 1527 1529 1530 1532 1533 1534 1535 1536 1537 1538 1538 1539 1539 1540 1540 1540
1475 1476 1477 1478 1479 1480 1481 1482 1484 1485 1488 1490 1491 1493 1496 1498 1500 1502 1504 1506 1508 1510 1511 1513 1515 1518 1520 1522 1524 1525 1527 1528 1529 1530 1531 1532 1533 1534 1534 1535 1535 1535 1535
1471 1472 1472 1473 1474 1475 1476 1477 1478 1480 1482 1484 1486 1488 1490 1493 1494 1497 1499 1500 1503 1504 1506 1507 1509 1512 1514 1517 1519 1520 1521 1523 1524 1525 1526 1527 1528 1529 1529 1530 1530 1530 1531
1466 1467 1467 1468 1469 1469 1470 1472 1473 1475 1476 1478 1480 1482 1485 1487 1488 1491 1493 1495 1497 1499 1501 1502 1504 1507 1509 1512 1513 1515 1516 1517 1519 1520 1521 1522 1523 1524 1524 1525 1525 1525 1526
1462 1462 1463 1463 1464 1465 1466 1467 1468 1470 1471 1473 1475 1477 1479 1481 1483 1485 1487 1489 1492 1494 1495 1497 1499 1502 1504 1506 1508 1509 1510 1512 1513 1515 1516 1516 1517 1518 1519 1520 1520 1520 1520
1458 1458 1458 1459 1460 1460 1461 1462 1464 1465 1466 1468 1470 1472 1474 1475 1477 1480 1482 1484 1486 1489 1491 1492 1494 1496 1498 1500 1502 1504 1505 1507 1508 1510 1510 1511 1512 1513 1513 1514 1515 1515 1515
1453 1454 1454 1455 1455 1456 1456 1458 1459 1460 1461 1463 1464 1466 1468 1470 1472 1474 1477 1479 1482 1484 1485 1487 1489 1491 1492 1495 1497 1498 1500 1501 1502 1505 1505 1506 1507 1507 1508 1509 1509 1509 1509
1449 1449 1450 1450 1450 1451 1452 1453 1454 1455 1456 1457 1459 1461 1462 1464 1466 1469 1471 1474 1476 1478 1481 1483 1484 1485 1487 1489 1492 1493 1494 1496 1497 1498 1500 1500 1501 1502 1502 1503 1503 1504 1504
1445 1445 1445 1445 1445 1446 1447 1448 1449 1450 1451 1452 1453 1455 1457 1459 1461 1463 1466 1468 1470 1472 1475 1477 1479 1480 1483 1485 1487 1488 1489 1490 1491 1493 1494 1495 1495 1496 1497 1497 1498 1498 1498
1441 1441 1441 1441 1441 1441 1442 1443 1444 1445 1445 1446 1448 1450 1451 1453 1455 1458 1460 1461 1463 1466 1469 1471 1473 1475 1477 1479 1481 1483 1483 1485 1485 1487 1489 1489 1490 1491 1491 1492 1492 1493 1493
1437 1437 1437 1437 1437 1437 1437 1438 1439 1439 1440 1441 1443 1444 1446 1448 1450 1452 1454 1456 1457 1460 1463 1465 1467 1469 1471 1473 1475 1476 1478 1479 1479 1481 1482 1484 1484 1486 1486 1486 1487 1487 1487